Location: Baumgarten
(49.0970°N, 12.7493°E)
Time: 19:16:28
(UTC+00:00)

Cosmos 2154 Rocket - Pass Details

Date: 05 July 2020
Orbit: 967 x 995 km, 82.9° (Epoch: 11 August)

Event Time Altitude Azimuth Distance (km) Brightness Sun altitude
Exits shadow 21:23:05 20° 161° (SSE) 2,095 5.1 -14.1°
Maximum altitude 21:27:21 54° 92° (E) 1,170 4.3 -14.4°
Drops below altitude 10° 21:33:22 10° 17° (NNE) 2,726 7.1 -14.8°
Sets 21:35:56 0° 13° (NNE) 3,681 7.9 -15.0°
